Starlink 30545

operational
NORAD ID: 58000 Int'l Des: 2023-153 Owner: SPXS Country: US Constellation: starlink
LEOCIRCULAR

About Starlink 30545

Description loading...

Live Position

Loading 3D Globe...

Upcoming Passes

Altitude History

Altitude vs Time

uPlot chart will show altitude changes over time

Two-Line Element Set

1 58000U 23153K 25351.17422258 -.00001185 00000-0 -72691-4 0 9990
2 58000 43.0023 157.1365 0001190 273.0551 87.0155 15.02532822122460
Epoch: Dec 17, 2025 • Age: 12 hours

Current Status

Altitude 562.3 km
Velocity 7.58 km/s
Sub-Earth Point -16.74°S, 22.72°E
Launch Date Oct 5, 2023
Age 2.2 years
Type internet

Technical Details

Classification Payload
Mass 730.00 kg
Dry Mass 700.00 kg
Total Mass 730.00 kg
Length 0.30 m
Diameter 4.10 m
Span 29.00 m
Shape Box + pan
Manufacturer SPXS
Bus Type Starlink V2M
Phase Status In Orbit
Owner/State SPXS/US

Large Constellations

Loading constellations...